Regional Weather Roundup
Issued by NWS

Home | Current Version | Previous Version | Graphics & Text | Print | Product List | Glossary On
Versions: 1 2 3 4 5 6 7 8 9 10 11 12 13 14 15 16 17 18 19 20 21 22 23 24 25 26 27 28 29 30 31 32 33 34 35 36 37 38 39 40 41 42 43 44 45 46 47 48 49 50
000
ASUS43 KMKX 041911
RWRWI

WISCONSIN REGIONAL WEATHER ROUNDUP
NATIONAL WEATHER SERVICE MILWAUKEE/SULLIVAN WI
200 PM CDT FRI SEP 04 2015

NOTE: "FAIR" INDICATES FEW OR NO CLOUDS BELOW 12,000 FEET WITH NO
SIGNIFICANT WEATHER AND/OR OBSTRUCTIONS TO VISIBILITY.

WIZ001-002-006>008-014>016-023>028-042000-
NORTHWEST WISCONSIN

CITY           SKY/WX    TMP DP  RH WIND       PRES   REMARKS
SUPERIOR ARPT  MOSUNNY   66  61  85 NE10      29.99F
ASHLAND        SUNNY     78  68  71 N12       30.00F HX  80
HAYWARD        PTSUNNY   81  67  62 S9        30.01F HX  83
SIREN          SUNNY     84  69  60 SE12      29.96F HX  88
CUMBERLAND     SUNNY     79  70  73 SE10G18   29.99F HX  81
RICE LAKE      SUNNY     81  69  66 E12       30.01S HX  84
CHETEK         SUNNY     82  71  69 SE9       30.00S HX  86
LADYSMITH      SUNNY     82  65  56 SE7       30.04S HX  84
EAU CLAIRE     SUNNY     84  70  62 SE10      29.98S HX  88
MENOMONIE      SUNNY     86  71  60 E10       29.98F HX  91
NEW RICHMOND   SUNNY     84  71  63 SE9       29.96S HX  89
OSCEOLA        SUNNY     85  71  64 SE8G18    29.98R HX  90
$$

WIZ003>005-009-010-017-018-042000-
NORTH CENTRAL WISCONSIN

CITY           SKY/WX    TMP DP  RH WIND       PRES   REMARKS
MANITOWISH WTR SUNNY     80  65  60 E7        30.05F HX  82
ARBOR VITAE    SUNNY     82  65  55 SE9       30.06F HX  84
WOODRUFF       SUNNY     82  65  55 SE9       30.06F HX  84
RHINELANDER    SUNNY     82  63  52 E10       30.07F HX  83
EAGLE RIVER    SUNNY     80  60  50 SE6       30.07F HX  81
LAND O LAKES   SUNNY     81  60  48 E9        30.09S HX  81
PHILLIPS       SUNNY     81  66  61 SE8       30.04S HX  83
TOMAHAWK       MOSUNNY   81  65  59 S3        30.06S HX  82
MEDFORD        SUNNY     77  67  72 SE6       30.06S
MERRILL        MOSUNNY   80  67  64 S5        30.06S HX  82
$$

WIZ029-030-035-036-043>047-042000-
CENTRAL WISCONSIN

CITY           SKY/WX    TMP DP  RH WIND       PRES   REMARKS
WAUSAU         MOSUNNY   80  66  62 MISG      30.04S HX  82
MOSINEE        PTSUNNY   75  68  78 S5        30.07S
MARSHFIELD     SUNNY     77  65  66 E9        30.05F
STEVENS POINT  PTSUNNY   72  65  78 E6        30.06S
WAUPACA        CLOUDY    76  68  77 S5        30.06S
WAUTOMA        MOSUNNY   77  67  71 N3        30.05S
WISC RAPIDS    SUNNY     77  64  64 VRB6      30.06S
CAMP DOUGLAS   MOSUNNY   81  73  78 E6        30.02F HX  85
$$

WIZ011>013-019>022-031-037>040-048>050-042000-
NORTHEAST WISCONSIN

CITY           SKY/WX    TMP DP  RH WIND       PRES   REMARKS
ANTIGO         SUNNY     79  64  61 E7        30.07S HX  80
SHAWANO        NOT AVBL
OCONTO         MOSUNNY   76  68  77 E6        30.04F
STURGEON BAY   SUNNY     73  64  73 N12       30.07S
GREEN BAY      CLOUDY    78  67  68 NE5       30.05R HX  80
MANITOWOC      CLOUDY    75  67  76 MISG      30.04S
APPLETON       PTSUNNY   73  63  68 VRB3      30.04S
CLINTONVILLE   CLOUDY    77  68  73 SW6       30.04S
OSHKOSH        CLOUDY    72  64  76 CALM      30.05S
$$

WIZ032>034-041-042-053>061-042000-
SOUTHWEST WISCONSIN

CITY           SKY/WX    TMP DP  RH WIND       PRES   REMARKS
LA CROSSE      PTSUNNY   85  71  63 SE7       29.97F HX  90
SPARTA         SUNNY     85  68  56 SE6       30.01S HX  88
VIROQUA        MOSUNNY   83  71  67 E6        30.02S HX  87
BOSCOBEL       MOSUNNY   90  72  55 MISG      29.98F HX  97
PRAIRIE DU CHI PTSUNNY   87  68  53 SE5       29.97F HX  90
PLATTEVILLE    MOSUNNY   86  73  63 SW3       30.00F HX  93
$$

WIZ056-057-062-063-064-067-068-042000-
SOUTH CENTRAL WISCONSIN

CITY           SKY/WX    TMP DP  RH WIND       PRES   REMARKS
REEDSBURG      MOSUNNY   82  70  68 SE3       30.02S HX  85
BARABOO/DELLS  SUNNY     81  66  61 E7        30.03F HX  83
LONE ROCK      PTSUNNY   84  72  67 SE5       30.00F HX  89
MINERAL POINT  SUNNY     86  70  58 CALM      30.02F HX  90
MADISON        MOSUNNY   81  69  67 NE6       30.01F HX  84
MIDDLETON      MOSUNNY   85  69  57 E3        30.02F HX  89
WATERTOWN      MOSUNNY   77  69  74 CALM      30.02F
MONROE         SUNNY     82  72  69 S3        30.01F HX  87
JANESVILLE     MOSUNNY   84  72  65 CALM      30.01S HX  89
$$

WIZ051-052-058>065-066-070>072-042000-
SOUTHEAST WISCONSIN

CITY           SKY/WX    TMP DP  RH WIND       PRES   REMARKS
MILWAUKEE      MOSUNNY   76  66  71 NE10      30.03S
WAUKESHA       MOSUNNY   79  64  61 E3        30.04F HX  81
MILWAUKEE/TIMM MOSUNNY   75  63  64 CALM      30.04F
RACINE         SUNNY     77  65  66 NE9       30.04F
BURLINGTON     MOSUNNY   78  66  66 NE5       30.02F HX  80
KENOSHA        MOSUNNY   78  66  66 E8        30.03F HX  80
FOND DU LAC    CLOUDY    74  67  78 NE7       30.05S
SHEBOYGAN      CLOUDY    73  67  81 NW6       30.04F
WEST BEND      CLOUDY    72  64  78 CALM      30.04F
JUNEAU         SUNNY     77  66  69 CALM      30.04F
$$

LSZ147-162-042000-
LAKE SUPERIOR

STATION/POSITION TIME  TEMP    WIND        PRES    WAVE
                       AIR SEA DIR/SP/G            HT/PER
                 (UTC) (F)     (DEG/KT/KT) (MB)    (FT/S)
W MID LAKE BUOY  1850   60 58   50/  8/ 10 1016.8F   1
DEVILS ISLAND    1900   62      70/  8/  9 1016.4F
PORT WING        1800   56      30/ 16/ 19 1015.9S
SAXON HARBOR     1840   71        CALM     1015.6F
$$

LMZ867-665-643>646-042000-
LAKE MICHIGAN

STATION/POSITION TIME  TEMP    WIND        PRES    WAVE
                       AIR SEA DIR/SP/G            HT/PER
                 (UTC) (F)     (DEG/KT/KT) (MB)    (FT/S)
CHAMBERS ISLAND  1800   68     350/  9/ 10 1017.9R
S GREEN BAY BUOY 1800   68 67   40/  6/  8 1018.8S
N MID LAKE BUOY  1850   68 67   40/  6/  8 1017.6R   1/ 4
NORTHPORT PIER   1800   69      80/  6/  8 1017.6S
SISTER BAY       1811   81     110/  7/ 10   N/A
ALGOMA LAKESHORE 1814           80/  6/  7   N/A
KEWAUNEE LAKESHO 1800   67      30/  4/  6 1016.6R
SHEBOYGAN LAKESH 1900   66     360/  5/  5 1017.4F
PORT WASHINGTON  1800   64      40/  6/  7 1017.6F
ATWATER BUOY     1900   63 59   20/  6/  6 1018.3F
MILWAUKEE LAKESH 1810   62      50/ 10/ 10   N/A
S MID LAKE BUOY  1850   68 71  330/  6/  6 1016.6S   1
KENOSHA   LAKESH 1900   68     140/  5/  6 1016.6F
$$

TC  - TEMPERATURE IN CELSIUS
VSB - VISIBILITY IN STATUTE MILES
WCI - WIND CHILL INDEX
HX  - HEAT INDEX



USA.gov is the U.S. government's official web portal to all federal, state and local government web resources and services.